< < Back
Terminal Aerodrome Forecast


Current Version              Previous Versions:   1  2  3  4  5  6  7  8  9  

Terminal Aerodrome Forecast

634
FTUS42 KJAX 031356 AAC
TAFGNV
TAF AMD
KGNV 031356Z 0314/0412 11004KT 4SM BR OVC005
     FM031500 12007KT P6SM BKN010
     FM031530 14008KT P6SM SCT035
     FM040000 14005KT P6SM SCT035 BKN250
     FM040600 17004KT 3SM BR SCT003=

Latest METAR

118
SAUS70 KWBC 040300
MTRGNV
METAR KGNV 040253Z 17005KT 10SM SCT042 BKN049 OVC065 22/18 A3016 RMK AO2
SLP210 T02170183 53013


USA.gov is the U.S. government's official web portal to all federal, state and local government web resources and services.